Probability
0 0 0 0 0 0 0 0 0 0 0 0 0 0 0 0 0 0 0 0 0 0 0 0 0 0 0 0 0 0 0 0 0 0 0 0 0 0 0 0 0 0 0 0 0 0 0 0 0
0 0 0 0 0 0 0 0 0 0 0 0 0 0 0 0 0 0 0 0 0 0 0 0 0 0 0 0 0 0 0 0 0 0 0 0 0 0 0 0 0 0 0 0 0 0 0 0 0
0 0 0 0 0 0 0 0 0 0 0 0 0 0 0 0 0 0 0 0 0 0 0 0 0 0 0 0 0 0 0 0 0 0 0 0 0 0 0 0 0 0 0 0 0 0 0 0 0
0 0 0 0 0 0 0 0 0 0 0 0 0 0 0 0 0 0 0 0 0 0 0 0 0 0 0 0 0 0 0 0 0 0 0 0 0 0 0 0 0 0 0 0 0 0 0 0 0
0 0 0 0 0 0 0 0 0 0 0 0 0 0 0 0 0 0 0 0 0 0 0 0 0 0 0 0 0 0 0 0 0 0 0 0 0 0 0 0 0 0 0 0 0 0 0 0 0
0 0 0 0 0 0 0 0 0 0 0 0 0 0 0 0 0 0 0 0 0 0 0 0 0 0 0 0 0 0 0 0 0 0 0 0 0 0 0 0 0 0 0 0 0 0 0 0 0
0 0 0 0 0 0 0 0 0 0 0 0 0 0 0 0 0 0 0 0 0 0 0 0 0 0 0 0 0 0 0 0 0 0 0 0 0 0 0 0 0 0 0 0 0 0 0 0 0
0 0 0 0 0 0 0 0 0 0 0 0 0 0 0 0 0 0 0 0 0 0 0 0 0 0 0 0 0 0 0 0 0 0 0 0 0 0 0 0 0 0 0 0 0 0 0 0 0
0 0 0 0 0 0 0 0 0 0 0 0 0 0 0 0 0 0 0 0 0 0 0 0 0 0 0 0 0 0 0 0 0 0 0 0 0 0 0 0 0 0 0 0 0 0 0 0 0
0 0 0 0 0 0 0 0 0 0 0 0 0 0 0 0 0 0 0 0 0 0 0 0 0 0 0 0 0 0 0 0 0 0 0 0 0 0 0 0 0 0 0 0 0 0 0 0 0
0 0 0 0 0 0 0 0 0 0 0 0 0 0 0 0 0 0 0 0 0 0 0 0 0 0 0 0 0 0 0 0 0 0 0 0 0 0 0 0 0 0 0 0 0 0 0 0 0
0 0 0 0 0 0 0 0 0 0 0 0 0 0 0 0 0 0 0 0 0 0 0 0 0 0 0 0 0 0 0 0 0 0 0 0 0 0 0 0 0 0 0 0 0 0 0 0 0
0 0 0 0 0 0 0 0 0 0 0 0 0 0 0 0 0 0 0 0 0 0 0 0 0 0 0 0 0 0 0 0 0 0 0 0 0 0 0 0 0 0 0 0 0 0 0 0 0
0 0 0 0 0 0 0 0 0 0 0 0 0 0 0 0 0 0 0 0 0 0 0 0 0 0 0 0 0 0 0 0 0 0 0 0 0 0 0 0 0 0 0 0 0 0 0 0 0
0 0 0 0 0 0 0 0 0 0 0 0 0 0 0 0 0 0 0 0 0 0 0 0 0 0 0 0 0 0 0 0 0 0 0 0 0 0 0 0 0 0 0 0 0 0 0 0 0
0 0 0 0 0 0 0 0 0 0 0 0 0 0 0 0 0 0 0 0 0 0 0 0 0 0 0 0 0 0 0 0 0 0 0 0 0 0 0 0 0 0 0 0 0 0 0 0 0
0 0 0 0 0 0 0 0 0 0 0 0 0 0 0 0 0 0 0 0 0 0 0 0 0 0 0 0 0 0 0 0 0 0 0 0 0 0 0 0 0 0 0 0 0 0 0 0 0
0 0 0 0 0 0 0 0 0 0 0 0 0 0 0 0 0 0 0 0 1 2 4 6 6 4 1 0 0 0 0 0 0 0 0 0 0 0 0 0 0 0 0 0 0 0 0 0 0
0 0 0 0 0 0 0 0 0 0 0 0 0 0 0 0 0 0 0 0 2 5 15 25 27 19 9 2 0 0 0 0 0 0 0 0 0 0 0 0 0 0 0 0 0 0 0 0 0
0 0 0 0 0 0 0 0 0 0 0 0 0 0 0 0 0 0 0 0 1 8 26 47 53 41 21 6 1 0 0 0 0 0 0 0 0 0 0 0 0 0 0 0 0 0 0 0 0
0 0 0 0 0 0 0 0 0 0 0 0 0 0 0 0 0 1 4 4 5 17 43 66 71 55 29 8 1 0 0 0 0 0 0 0 0 0 0 0 0 0 0 0 0 0 0 0 0
0 0 0 0 0 0 0 0 0 0 0 0 0 0 0 0 0 3 9 14 21 42 69 83 82 63 31 8 1 0 0 0 0 0 0 0 0 0 0 0 0 0 0 0 0 0 0 0 0
0 0 0 0 0 0 0 0 0 0 0 0 0 0 0 0 0 3 9 20 39 67 87 91 83 65 35 10 1 0 0 0 0 0 0 0 0 0 0 0 0 0 0 0 0 0 0 0 0
0 0 0 0 0 0 0 0 0 0 0 0 0 0 0 0 0 1 5 15 35 61 78 78 69 57 36 14 2 0 0 0 0 0 0 0 0 0 0 0 0 0 0 0 0 0 0 0 0
0 0 0 0 0 0 0 0 0 0 0 0 0 0 0 0 0 0 1 5 15 32 46 48 44 39 29 15 3 0 0 0 0 0 0 0 0 0 0 0 0 0 0 0 0 0 0 0 0
0 0 0 0 0 0 0 0 0 0 0 0 0 0 0 0 0 0 0 0 3 8 15 19 19 19 17 10 3 0 0 0 0 0 0 0 0 0 0 0 0 0 0 0 0 0 0 0 0
0 0 0 0 0 0 0 0 0 0 0 0 0 0 0 0 0 0 0 0 0 0 3 5 6 7 7 4 1 0 0 0 0 0 0 0 0 0 0 0 0 0 0 0 0 0 0 0 0
0 0 0 0 0 0 0 0 0 0 0 0 0 0 0 0 0 0 0 0 0 0 1 2 2 2 2 1 0 0 0 0 0 0 0 0 0 0 0 0 0 0 0 0 0 0 0 0 0
0 0 0 0 0 0 0 0 0 0 0 0 0 0 0 0 0 0 0 0 0 0 0 1 1 0 0 0 0 0 0 0 0 0 0 0 0 0 0 0 0 0 0 0 0 0 0 0 0
0 0 0 0 0 0 0 0 0 0 0 0 0 0 0 0 0 0 0 0 0 0 0 0 0 0 0 0 0 0 0 0 0 0 0 0 0 0 0 0 0 0 0 0 0 0 0 0 0
Wind_Speed
4 3 3 3 6 6 1 2 2 2 2 2 3 6 7 4 2 2 2 8 10 11 8 10 13 12 11 11 11 11 11 11 12 12 13 12 11 11 10 10 10 9 8 8 8 8 8 7 7
2 2 3 5 6 3 3 2 2 2 4 4 3 4 5 2 2 5 5 6 12 12 8 8 14 13 11 12 11 11 11 12 12 12 13 12 11 10 10 9 9 9 8 8 8 8 8 8 7
1 2 4 5 5 3 2 3 3 2 3 2 3 3 4 3 4 6 5 10 10 8 6 8 14 13 12 12 11 12 12 12 12 12 12 11 11 10 9 8 9 9 9 8 8 8 8 9 8
3 4 5 6 3 2 2 3 2 2 1 2 4 3 2 1 6 5 10 12 10 7 6 7 14 13 12 12 11 12 12 12 12 12 12 11 11 10 9 8 9 9 9 8 9 9 8 9 9
4 5 6 4 2 4 4 4 3 4 2 2 4 4 2 2 6 10 12 11 9 7 6 6 13 12 12 12 11 12 12 13 13 12 12 12 11 10 9 8 8 8 8 8 8 9 8 8 9
5 5 5 2 4 4 3 3 1 4 3 3 4 4 2 2 6 10 10 8 8 9 7 6 13 13 13 12 12 12 12 13 13 12 12 11 11 10 9 8 7 7 7 6 6 7 8 8 8
5 5 4 1 3 4 3 3 1 2 3 4 5 4 2 2 4 8 8 7 6 6 7 6 7 9 13 13 13 13 13 13 12 12 11 11 10 10 9 8 7 5 4 4 4 6 7 7 6
5 6 3 1 1 3 4 5 2 4 2 4 5 7 5 5 6 7 7 6 6 5 5 5 5 6 6 7 12 13 13 13 12 12 11 11 10 9 9 7 6 5 4 3 3 4 6 6 6
4 6 1 2 2 3 3 4 4 2 5 2 1 5 6 12 10 8 5 4 5 6 4 5 5 4 5 5 9 10 12 13 11 10 11 9 4 4 5 6 6 6 5 3 3 3 5 7 8
4 3 5 4 4 3 2 2 3 2 3 1 2 3 9 13 12 10 8 8 7 7 7 5 6 5 5 5 4 4 4 5 5 4 5 4 3 3 5 6 7 7 5 2 1 2 5 6 4
2 3 3 3 3 1 2 2 2 3 3 4 6 9 12 12 12 12 10 8 8 8 8 8 6 6 6 3 3 3 3 3 4 5 5 4 3 3 3 1 2 3 4 3 3 4 2 2 3
1 2 2 3 2 1 3 4 3 0 3 5 7 13 14 15 15 15 13 11 8 8 9 9 8 6 5 4 3 4 4 4 3 4 5 4 3 3 3 2 2 2 2 2 2 1 1 2 3
2 1 1 3 4 3 5 3 2 3 6 6 8 12 13 15 14 12 10 9 8 9 10 8 8 6 5 5 4 4 4 5 5 4 5 5 4 4 3 3 2 3 2 2 2 2 4 4 4
2 1 2 5 5 5 5 4 2 3 7 3 8 12 11 11 11 8 8 8 9 10 11 9 9 8 7 5 5 4 4 4 5 4 5 5 4 4 4 3 3 3 3 2 2 2 3 4 3
1 1 2 3 4 3 4 6 1 3 6 5 2 4 6 9 9 10 10 10 10 9 9 11 11 9 8 7 6 5 4 5 4 4 5 5 5 5 4 3 3 3 3 3 2 2 2 3 3
3 3 2 2 2 3 2 5 1 0 3 4 5 5 5 5 7 9 9 10 9 8 8 10 11 10 9 7 6 4 4 5 5 4 4 5 6 5 4 4 4 4 4 3 3 3 2 2 2
3 1 2 4 1 3 2 6 5 1 2 5 6 6 6 7 8 8 10 12 11 11 10 10 9 12 11 8 6 4 4 4 4 4 4 5 6 6 5 4 4 4 3 3 4 3 3 3 2
2 2 2 4 2 2 3 7 10 6 5 6 6 7 7 8 10 9 10 14 14 12 11 11 8 9 9 6 4 3 3 3 3 3 4 5 5 6 5 4 4 5 4 4 3 3 2 2 3
2 2 4 4 1 1 3 7 10 10 10 10 8 7 8 9 9 9 9 11 14 13 13 14 11 9 8 5 4 4 3 3 2 3 4 5 5 5 4 3 4 5 5 6 6 3 3 2 3
2 1 4 3 1 1 4 6 5 7 11 12 13 12 10 9 8 9 11 9 12 14 14 14 13 11 9 6 4 3 3 3 2 2 3 4 5 5 4 4 4 4 4 5 5 4 3 2 2
2 3 4 3 1 3 3 5 4 6 7 13 14 13 13 12 10 10 11 10 9 10 11 10 10 8 4 3 3 3 3 3 2 2 2 3 4 5 5 5 5 5 5 5 6 5 6 4 2
5 4 3 1 1 3 2 4 4 7 10 16 17 16 17 17 13 9 8 7 4 5 7 10 11 11 7 4 3 3 4 3 3 2 2 3 4 5 5 6 5 5 4 5 6 5 4 5 3
2 4 4 2 1 2 1 2 5 6 11 15 15 16 17 17 15 11 9 7 4 4 7 9 11 13 9 4 2 2 2 2 2 2 3 3 3 4 5 6 5 5 5 5 5 5 5 4 5
3 3 4 4 3 2 3 3 3 5 9 14 15 16 16 17 15 12 10 9 7 5 6 8 11 13 9 4 2 3 3 4 3 3 4 3 2 3 5 5 5 5 4 4 5 5 6 5 5
7 4 4 3 1 5 2 3 1 4 7 10 13 15 15 13 13 11 11 9 7 6 5 7 11 13 7 2 2 4 4 5 5 4 4 3 3 2 3 4 4 4 4 4 4 4 4 5 5
5 1 3 4 4 4 0 2 2 5 7 8 9 12 14 14 11 10 9 8 7 6 4 8 12 11 7 3 3 2 3 3 2 2 1 2 1 1 3 4 4 4 4 4 4 3 4 4 5
6 4 2 2 3 3 2 2 3 11 14 15 15 15 15 15 13 11 9 8 8 7 7 9 11 7 2 4 4 1 1 0 1 1 0 1 1 2 3 4 4 4 4 4 4 3 4 4 4
4 2 4 2 2 4 1 3 6 13 17 18 18 17 16 15 13 11 8 7 7 7 8 8 5 2 3 4 1 2 3 2 2 2 1 1 1 1 2 3 3 4 4 4 4 3 3 3 4
7 5 4 3 2 1 1 3 4 8 11 14 15 15 14 14 12 8 5 5 5 6 6 3 2 4 4 2 4 5 3 4 4 3 2 2 2 2 3 3 4 4 4 3 3 2 2 3 2
2 2 3 3 1 1 1 1 3 7 10 12 15 14 13 12 10 5 3 3 2 2 2 4 5 4 3 4 5 5 4 4 4 4 4 4 4 4 4 4 4 4 4 4 4 4 3 3 2
Wind_Direction
332 66 102 67 53 51 34 285 265 320 57 26 73 97 103 99 147 169 138 140 143 154 170 165 161 157 160 155 153 152 148 140 135 132 128 124 121 119 117 115 111 106 100 98 104 104 96 90 92
326 127 67 63 77 60 318 309 289 239 146 152 82 84 88 98 131 128 139 155 151 156 163 165 165 164 163 158 158 154 148 145 140 138 134 131 130 130 123 117 112 109 103 96 95 98 95 85 80
351 72 83 72 85 145 297 331 302 336 144 134 77 59 92 149 156 159 158 146 148 154 155 169 168 168 163 161 159 156 152 148 144 141 139 136 136 133 128 128 122 113 106 97 89 88 88 83 70
90 54 56 68 73 227 250 288 290 131 197 77 101 75 50 140 162 153 141 145 150 151 153 175 173 173 167 165 163 158 153 150 148 145 142 138 136 130 127 131 131 123 114 101 86 78 74 71 64
63 78 63 53 340 280 260 270 219 183 184 91 110 109 69 38 116 130 142 149 151 147 154 174 178 179 172 168 167 161 155 153 151 149 146 142 136 130 126 126 131 131 122 106 90 80 71 64 62
56 63 80 64 315 304 286 289 257 160 147 134 125 111 77 119 127 142 145 149 153 155 158 173 181 180 176 171 169 163 162 159 155 153 149 144 140 136 132 127 130 131 124 111 95 82 73 58 48
96 83 105 116 325 338 339 339 322 149 150 170 145 108 106 171 150 139 139 139 147 157 164 173 173 177 178 173 170 169 166 163 159 155 154 149 147 142 139 136 137 140 139 126 97 83 72 57 38
118 102 91 56 0 309 311 330 281 164 151 139 136 144 178 183 144 126 121 129 140 148 154 160 160 165 167 167 174 174 170 165 162 158 157 154 154 152 148 144 150 157 154 140 94 72 64 61 48
91 77 122 218 207 272 310 333 340 108 112 117 179 174 171 138 138 127 115 123 141 150 149 151 153 157 156 160 178 174 171 168 162 159 162 156 143 137 138 148 162 159 151 130 96 75 69 64 56
78 124 217 210 198 219 294 289 305 101 112 126 69 80 128 142 157 162 168 169 168 175 176 166 165 164 159 170 161 153 155 155 141 138 139 131 129 137 140 173 170 162 149 118 86 53 65 71 49
97 186 243 248 222 225 280 292 312 141 175 196 191 165 151 161 173 182 184 180 183 180 183 179 175 169 163 160 148 146 138 135 136 138 137 136 129 135 131 149 168 140 121 71 34 23 36 83 88
136 262 277 324 345 337 310 320 352 111 240 274 217 171 164 173 185 191 192 190 181 175 189 182 180 173 168 157 156 152 150 147 145 149 150 148 143 143 149 162 159 118 105 114 82 29 67 127 109
207 248 301 354 12 352 329 298 280 269 302 303 163 167 179 185 194 199 200 194 183 183 189 181 175 173 166 158 164 167 161 159 153 155 165 164 157 159 168 180 167 136 134 144 127 123 129 128 120
240 158 60 21 4 2 344 303 241 295 330 329 173 180 188 194 197 197 200 202 201 195 188 178 174 172 167 170 174 174 158 151 152 166 178 175 168 167 173 181 172 149 158 160 144 137 131 129 130
2 67 42 24 348 340 327 309 262 349 344 0 312 226 201 200 198 203 205 207 208 206 192 182 177 169 172 177 183 178 166 157 163 177 186 181 179 176 173 177 182 167 162 159 138 117 103 115 119
56 38 323 318 6 329 356 292 313 33 7 333 328 325 302 258 228 215 208 213 209 201 194 191 183 171 175 178 182 177 169 166 172 179 187 188 188 178 170 182 194 173 158 159 154 140 133 137 138
36 24 298 308 20 0 12 278 287 341 313 289 290 298 306 308 288 252 220 215 214 204 191 192 187 173 177 178 174 170 169 178 179 179 183 191 195 190 183 196 197 170 162 167 172 157 156 161 159
240 229 261 279 320 3 315 285 301 334 323 300 299 303 300 292 285 278 250 223 214 205 190 186 189 174 167 160 150 153 167 185 183 187 190 192 194 187 184 199 191 171 165 169 174 170 157 144 146
170 197 254 269 325 335 293 295 321 345 354 340 326 304 292 284 277 284 276 244 221 202 189 182 179 173 163 155 161 166 180 179 188 200 190 190 192 187 184 187 174 172 173 171 166 160 163 141 134
125 221 266 286 11 302 308 305 6 6 22 6 358 344 323 303 295 293 287 260 227 210 194 182 177 174 177 173 150 142 142 152 159 164 186 185 182 180 182 177 175 174 157 154 164 162 154 146 148
226 219 245 262 351 43 341 319 10 346 6 7 5 354 350 335 316 309 300 274 233 209 192 176 159 146 135 120 107 95 92 93 114 150 175 167 166 168 165 172 170 174 168 176 183 176 166 166 175
277 287 233 197 59 310 18 300 329 335 349 6 3 1 359 353 341 330 332 320 268 194 152 140 131 118 105 115 161 176 170 173 181 165 160 153 158 163 167 169 171 172 176 183 192 186 177 160 168
337 33 53 49 101 339 344 232 309 345 359 357 357 359 358 357 355 355 359 358 17 95 121 126 124 112 110 126 178 208 162 141 135 140 162 164 165 174 177 173 175 180 185 187 180 174 183 182 177
33 31 40 45 67 294 243 179 330 6 346 344 352 355 354 353 355 2 6 12 20 48 92 112 112 100 99 117 175 206 172 161 166 174 176 177 177 184 185 177 181 186 188 185 181 181 189 197 194
18 26 346 330 348 247 207 146 103 24 358 348 346 348 349 347 350 357 14 14 16 32 70 100 95 87 76 70 217 213 192 182 190 194 193 186 180 181 182 171 183 186 187 187 185 183 190 194 203
337 48 202 247 235 265 212 148 122 27 357 348 345 344 345 345 345 351 10 17 21 26 50 89 85 78 52 351 266 213 183 185 201 204 203 200 184 163 161 176 183 183 185 195 194 190 193 192 208
358 353 309 250 266 258 282 34 32 359 355 351 349 347 341 338 339 347 3 19 30 41 53 84 88 81 30 272 249 186 161 100 51 49 141 197 196 186 171 170 174 182 193 198 188 202 212 203 214
43 348 16 6 255 239 211 58 6 350 343 340 341 337 329 329 333 341 359 20 27 44 57 65 81 126 240 245 197 66 51 75 105 126 153 202 217 184 149 150 164 172 186 191 189 210 226 224 223
2 4 342 293 254 243 172 84 17 335 330 329 328 325 322 325 324 325 342 6 28 41 38 28 308 265 250 197 108 92 104 130 136 140 154 173 179 172 181 187 185 189 193 195 196 218 222 231 239
357 310 291 289 321 72 141 114 330 335 333 332 329 327 330 330 323 307 265 238 229 192 216 249 241 225 190 137 117 124 144 155 169 179 185 180 175 173 182 188 197 206 202 200 204 217 221 219 219